Weather Roundup
Issued by NWS Springfield, MO

Home | Current Version | Previous Version | Text Only | Print | Product List | Glossary On
Versions: 1 2 3 4 5 6 7 8 9 10 11 12 13 14 15 16 17 18 19 20 21 22 23 24 25 26 27 28 29 30 31 32 33 34 35 36 37 38 39 40 41 42 43 44 45 46 47 48 49 50
609
NZUS99 KSGF 050407
HRRSGF

HOURLY WEATHER
NATIONAL WEATHER SERVICE SPRINGFIELD MO
1100 PM CDT WED MAY 04 2016

......SGF CWA......

CITY           SKY/WX    TMP DP  RH WIND       PRES   REMARKS
SPRINGFIELD    CLEAR     55  37  50 NW3       29.98R
JOPLIN         CLEAR     53  44  71 CALM      30.01R
WEST PLAINS    CLEAR     53  34  48 NW5       29.96R
ROLLA          CLEAR     51  36  56 NW5       29.94R
OSAGE BEACH    CLEAR     54  34  47 N3        29.97S

......SURROUNDING SGF CWA......

CITY           SKY/WX    TMP DP  RH WIND       PRES   REMARKS
CHANUTE        CLEAR     50  42  74 CALM      30.02R
PARSONS        CLEAR     50  46  86 CALM      30.03R
COFFEYVILLE    CLEAR     55  44  66 CALM      30.02R
EMPORIA        CLEAR     54  41  61 W6        30.03R
GROVE OK       CLEAR     59  43  55 CALM      30.02R
ROGERS AR      CLEAR     55  40  56 NW5       30.01R
SILOAM SPRINGS CLEAR     52  36  54 N6        30.01S
HARRISON AR    CLEAR     55  40  56 NW3       29.98R
NEAR YELLVILLE CLEAR    N/A N/A N/A NW5       29.93R

......KANSAS AND MISSOURI......

CITY           SKY/WX    TMP DP  RH WIND       PRES   REMARKS
KANSAS CTY INT CLEAR     57  36  45 NW6       30.01R
DOWNTOWN KC    CLEAR     56  40  55 CALM      30.00R
COLUMBIA       CLEAR     52  37  56 W7        29.95S
SEDALIA        CLEAR     55  38  52 NW6       29.99R
ST JOSEPH      CLEAR     52  41  66 CALM      30.01R
ST LOUIS       MOCLDY    56  38  50 W6        29.90S
SPIRIT OF STL  MOCLDY    49  42  77 W5        29.90S
KIRKSVILLE     CLEAR     50  36  58 NW6       29.95S
WICHITA        CLEAR     55  40  56 NW6       30.05R
TOPEKA         CLEAR     52  43  71 CALM      30.02R
OLATHE         CLEAR     59  38  45 N5        30.01R

......TENNESSEE......

CITY           SKY/WX    TMP DP  RH WIND       PRES   REMARKS
MEMPHIS        PTCLDY    64  45  49 N8        29.88R
NASHVILLE      PTCLDY    54  41  61 N7        29.85R

......ARKANSAS.......

CITY           SKY/WX    TMP DP  RH WIND       PRES   REMARKS
FAYETTEVILLE   CLEAR     48  44  86 CALM      30.00R
FT SMITH       CLEAR     63  36  36 NW6       29.98R
LITTLE ROCK    CLEAR     65  39  38 NW10      29.92R

......OKLAHOMA.......

CITY           SKY/WX    TMP DP  RH WIND       PRES   REMARKS
TULSA          PTCLDY    57  45  64 NW3       30.00R
PONCA CITY     CLEAR     52  43  71 CALM      30.04R
MCALESTER      PTCLDY    52  46  80 CALM      30.01R
OKLAHOMA CITY  CLEAR     64  43  46 N5        30.04R

......IOWA............

CITY           SKY/WX    TMP DP  RH WIND       PRES   REMARKS
DES MOINES     CLEAR     57  35  43 N6        29.97R
QUAD CITIES    CLEAR     54  33  45 NW6       29.89R

......ILLINOIS........

CITY           SKY/WX    TMP DP  RH WIND       PRES   REMARKS
QUINCY         CLEAR     51  38  60 NW7       29.91R
CHICAGO        MOCLDY    43  34  70 N13       29.88S




USA.gov is the U.S. government's official web portal to all federal, state and local government web resources and services.